This is the latest recevied weather packets stored in our database for station/object K7TUS-6. If no packets are shown the sender has not sent any weather packets the latest 10 day(s).
| Time | Temp. | Humidity | Pressure | Rain* | Wind** | Luminosity | Snow |
|---|---|---|---|---|---|---|---|
| 1777624508 | 5.56° C | 25% | 977.5 hPa | - | - | - | - |
| 1777624207 | 5.56° C | 25% | 977.3 hPa | - | - | - | - |
| 1777623607 | 5.56° C | 24% | 978.1 hPa | - | - | - | - |
| 1777623306 | 5.56° C | 23% | 977 hPa | - | - | - | - |
| 1777623006 | 6.11° C | 23% | 976.8 hPa | - | - | - | - |
| 1777622705 | 6.11° C | 23% | 977.3 hPa | - | - | - | - |
| 1777622404 | 6.11° C | 23% | 977.8 hPa | - | - | - | - |
| 1777622104 | 6.11° C | 22% | 978.1 hPa | - | - | - | - |
| 1777621810 | 6.11° C | 22% | 978 hPa | - | - | - | - |
| 1777621209 | 6.11° C | 20% | 978.5 hPa | - | - | - | - |
| 1777620908 | 6.11° C | 19% | 978 hPa | - | - | - | - |
| 1777620608 | 6.67° C | 19% | 978.5 hPa | - | - | - | - |
| 1777620307 | 6.67° C | 19% | 978.1 hPa | - | - | - | - |
| 1777620007 | 6.67° C | 19% | 978.1 hPa | - | - | - | - |
| 1777619706 | 6.67° C | 19% | 978.6 hPa | - | - | - | - |
| 1777619406 | 7.22° C | 19% | 979.3 hPa | - | - | - | - |
| 1777619105 | 7.22° C | 18% | 978.9 hPa | - | - | - | - |
| 1777618808 | 7.22° C | 18% | 979.2 hPa | - | - | - | - |
| 1777618209 | 7.78° C | 22% | 978.4 hPa | - | - | - | - |
| 1777617908 | 7.22° C | 23% | 978.6 hPa | - | - | - | - |
| 1777617308 | 6.67° C | 23% | 979.6 hPa | - | - | - | - |
| 1777617008 | 6.67° C | 21% | 979.1 hPa | - | - | - | - |
| 1777616707 | 7.22° C | 20% | 978.8 hPa | - | - | - | - |
| 1777616407 | 7.22° C | 18% | 978.9 hPa | - | - | - | - |
| 1777615806 | 7.78° C | 14% | 978.6 hPa | - | - | - | - |
* Rain since midnight (hover to see other rain measurements)
** Current wind speed in m/s (hover to see current wind gust speed)